"startDT [UTC]","vpos","CH4 [ppm]","stdev(CH4) [ppm]","CO2 [ppm]","stdev(CO2) [ppm]","H2O_reported [%]","stdev(H2O_reported)","CavityPressure [torr]","CavityTemp [C]","OutletValve","CH4_dry [ppm]","CO2_dry [ppm]","DasTemp [C]","EtalonTemp [C]","WarmBoxTemp [C]","MPVPosition","T_ECpre [C]","T_EC1 [C]","T_EC2 [C]","p_inlet [hPa]","p_in [hPa]","p_out [hPa]","T_inlet [C]","RH_inlet [%]","dwpt_inlet [C]","T_vent [C]","RH_vent [%]","dwpt_vent [C]","flow_vent [l min-1]","flow_inlet [l min-1]","dwpt_sample [C]","T_room [C]"
2015-03-22 00:00:00,0.0,1.94039,0.00030,405.878,0.023,0.1509,0.0015,140.003,45.000,34106.33295,1.94325,406.617,31.921,45.069,45.000,0.00,0.09,-272.71,-272.77,-0,963,0,20.2,4.8,-21.1,19.8,5.0,-20.9,5.73,2.04,-14.5,24.7
2015-03-22 00:01:00,0.0,1.94037,0.00036,405.882,0.018,0.1485,0.0013,140.000,45.000,34105.43812,1.94323,406.609,31.906,45.069,45.000,0.00,0.09,-272.70,-272.77,0,963,0,20.2,4.8,-21.2,19.8,5.0,-21.0,5.73,2.02,-14.5,24.7
2015-03-22 00:02:00,0.0,1.94043,0.00032,405.936,0.038,0.1472,0.0022,139.998,45.000,34103.23663,1.94325,406.657,31.878,45.069,45.000,0.00,0.09,-272.71,-272.76,1,963,0,20.2,4.7,-21.3,19.8,4.9,-21.1,5.73,1.97,-14.5,24.7
2015-03-22 00:03:00,0.0,1.94044,0.00060,405.923,0.037,0.1476,0.0022,140.003,45.000,34107.29294,1.94325,406.646,31.876,45.069,45.001,0.00,0.09,-272.72,-272.77,1,962,0,20.2,4.7,-21.3,19.8,4.9,-21.1,5.73,1.93,-14.5,24.7
2015-03-22 00:04:00,0.0,1.94031,0.00030,405.913,0.027,0.1477,0.0012,140.001,45.000,34107.26191,1.94318,406.636,31.911,45.069,45.000,0.00,0.09,-272.71,-272.77,1,961,0,20.2,4.7,-21.3,19.8,4.9,-21.2,5.73,1.94,-14.5,24.7
2015-03-22 00:05:00,0.0,1.94038,0.00034,405.913,0.043,0.1486,0.0011,140.002,45.000,34106.13203,1.94322,406.641,31.938,45.068,45.000,0.00,0.09,-272.71,-272.77,1,961,0,20.2,4.7,-21.3,19.9,4.9,-21.1,5.73,2.00,-14.5,24.7
2015-03-22 00:06:00,0.0,1.94056,0.00026,405.919,0.028,0.1492,0.0020,140.002,45.000,34104.15225,1.94340,406.649,31.940,45.068,45.000,0.00,0.09,-272.71,-272.77,1,961,0,20.2,4.7,-21.3,19.9,4.9,-21.1,5.73,2.04,-14.5,24.7
2015-03-22 00:07:00,0.0,1.94059,0.00030,405.916,0.024,0.1485,0.0012,139.998,45.000,34104.00787,1.94344,406.643,31.942,45.068,45.000,0.00,0.09,-272.72,-272.77,0,962,0,20.2,4.7,-21.3,19.9,4.9,-21.1,5.73,2.05,-14.5,24.7
2015-03-22 00:08:00,0.0,1.94058,0.00022,405.900,0.049,0.1485,0.0013,140.004,45.000,34104.41874,1.94342,406.627,31.941,45.068,45.000,0.00,0.09,-272.71,-272.77,-0,962,0,20.2,4.7,-21.2,19.9,4.9,-21.1,5.73,2.00,-14.5,24.6
2015-03-22 00:09:00,0.0,1.94025,0.00037,405.916,0.026,0.1491,0.0016,140.003,45.000,34106.69533,1.94311,406.647,31.936,45.068,45.000,0.00,0.09,-272.71,-272.77,-0,963,0,20.2,4.7,-21.2,19.9,4.9,-21.1,5.73,1.96,-14.5,24.7
2015-03-22 00:10:00,0.0,1.94037,0.00033,405.907,0.026,0.1501,0.0015,139.999,45.000,34104.70021,1.94325,406.643,31.931,45.068,45.000,0.00,0.09,-272.72,-272.76,-0,963,0,20.2,4.8,-21.2,19.9,4.9,-21.1,5.73,1.94,-14.5,24.7
2015-03-22 00:11:00,0.0,1.94052,0.00031,405.911,0.034,0.1495,0.0020,140.003,45.000,34106.30323,1.94338,406.642,31.929,45.068,45.000,0.00,0.09,-272.71,-272.77,0,963,0,20.2,4.8,-21.2,19.9,4.9,-21.0,5.73,1.98,-14.5,24.7
2015-03-22 00:12:00,0.0,1.94062,0.00033,405.917,0.034,0.1485,0.0014,139.997,45.000,34104.97927,1.94347,406.645,31.922,45.068,45.000,0.00,0.09,-272.70,-272.76,1,963,0,20.2,4.7,-21.3,19.9,4.9,-21.1,5.73,2.01,-14.5,24.8
2015-03-22 00:13:00,0.0,1.94011,0.00040,405.877,0.028,0.1480,0.0016,140.000,45.000,34108.32107,1.94292,406.602,31.929,45.068,45.000,0.00,0.09,-272.71,-272.77,1,963,0,20.2,4.7,-21.4,19.9,4.9,-21.1,5.73,2.04,-14.5,24.8
2015-03-22 00:14:00,0.0,1.94027,0.00035,405.878,0.035,0.1484,0.0019,140.000,45.000,34110.48936,1.94315,406.603,31.934,45.068,45.000,0.00,0.09,-272.71,-272.78,1,962,0,20.2,4.7,-21.4,19.9,4.9,-21.1,5.73,2.03,-14.5,24.7
2015-03-22 00:15:00,0.0,1.94024,0.00038,405.921,0.018,0.1477,0.0018,139.999,45.000,34111.14444,1.94302,406.644,31.937,45.068,45.000,0.00,0.09,-272.70,-272.76,1,961,0,20.2,4.7,-21.4,19.9,4.9,-21.2,5.73,1.98,-14.5,24.8
2015-03-22 00:16:00,0.0,1.93993,0.00056,405.897,0.035,0.1481,0.0018,140.001,45.000,34112.10891,1.94280,406.623,31.930,45.068,45.000,0.00,0.09,-272.71,-272.77,1,961,0,20.3,4.7,-21.3,19.9,4.9,-21.2,5.73,1.95,-14.5,24.8
2015-03-22 00:17:00,0.0,1.93990,0.00035,405.899,0.029,0.1504,0.0013,139.996,45.000,34111.26537,1.94276,406.632,31.939,45.068,45.000,0.00,0.09,-272.72,-272.77,1,962,0,20.2,4.8,-21.2,19.9,4.9,-21.1,5.73,1.95,-14.5,24.8
2015-03-22 00:18:00,0.0,1.94004,0.00042,405.888,0.030,0.1498,0.0016,139.995,45.000,34110.97360,1.94294,406.623,31.964,45.068,45.000,0.00,0.09,-272.71,-272.77,-0,963,0,20.3,4.8,-21.1,19.9,4.9,-21.0,5.73,2.00,-14.5,24.7
2015-03-22 00:19:00,0.0,1.93973,0.00028,405.877,0.032,0.1493,0.0015,139.998,45.000,34113.74912,1.94257,406.609,31.994,45.068,45.000,0.00,0.09,-272.71,-272.77,-0,963,0,20.3,4.7,-21.2,19.9,4.9,-21.1,5.73,2.04,-14.4,24.7
2015-03-22 00:20:00,0.0,1.94030,0.00035,405.900,0.041,0.1478,0.0018,140.000,45.000,34112.34788,1.94311,406.624,31.953,45.068,45.000,0.00,0.09,-272.72,-272.77,0,964,0,20.3,4.7,-21.3,19.9,4.9,-21.1,5.73,2.03,-14.5,24.7
2015-03-22 00:21:00,0.0,1.94006,0.00027,405.875,0.023,0.1472,0.0018,140.001,45.000,34114.88328,1.94292,406.596,31.938,45.068,45.000,0.00,0.09,-272.72,-272.77,1,963,0,20.3,4.7,-21.4,19.9,4.8,-21.2,5.73,2.00,-14.4,24.8
2015-03-22 00:22:00,0.0,1.93998,0.00039,405.864,0.025,0.1472,0.0017,140.001,45.000,34116.87293,1.94279,406.585,31.928,45.068,45.000,0.00,0.09,-272.72,-272.76,1,963,0,20.3,4.7,-21.4,19.9,4.8,-21.2,5.73,1.96,-14.4,24.8
2015-03-22 00:23:00,0.0,1.93990,0.00039,405.867,0.049,0.1455,0.0018,140.002,45.000,34116.92749,1.94268,406.578,31.929,45.069,45.000,0.00,0.09,-272.72,-272.76,0,962,0,20.3,4.7,-21.4,19.9,4.8,-21.2,5.73,1.94,-14.5,24.8
2015-03-22 00:24:00,0.0,1.94003,0.00038,405.902,0.032,0.1464,0.0016,140.001,45.000,34114.70151,1.94283,406.619,31.935,45.068,45.000,0.00,0.09,-272.71,-272.77,1,962,0,20.3,4.7,-21.4,19.9,4.8,-21.2,5.73,1.96,-14.5,24.7
2015-03-22 00:25:00,0.0,1.94009,0.00031,405.895,0.027,0.1468,0.0016,139.996,45.000,34111.38357,1.94291,406.614,31.938,45.068,45.000,0.00,0.09,-272.71,-272.77,0,963,0,20.3,4.7,-21.4,19.9,4.8,-21.3,5.73,2.00,-14.5,24.8
2015-03-22 00:26:00,0.0,1.94000,0.00040,405.912,0.038,0.1453,0.0012,139.999,45.000,34111.32651,1.94277,406.624,31.940,45.068,45.000,0.00,0.09,-272.71,-272.76,0,963,0,20.3,4.6,-21.5,19.9,4.8,-21.3,5.73,2.04,-14.5,24.8
2015-03-22 00:27:00,0.0,1.94008,0.00030,405.897,0.032,0.1450,0.0017,140.000,45.000,34112.43003,1.94287,406.605,31.939,45.068,45.000,0.00,0.09,-272.71,-272.77,0,964,0,20.2,4.6,-21.5,19.9,4.8,-21.3,5.73,2.04,-14.5,24.8
2015-03-22 00:28:00,0.0,1.94007,0.00037,405.883,0.028,0.1443,0.0014,140.002,45.000,34116.18517,1.94284,406.591,31.939,45.068,45.000,0.00,0.09,-272.71,-272.77,0,963,0,20.3,4.6,-21.6,19.9,4.8,-21.4,5.73,1.99,-14.5,24.8
2015-03-22 00:29:00,0.0,1.93992,0.00038,405.890,0.038,0.1442,0.0018,140.002,45.000,34117.64523,1.94268,406.594,31.938,45.068,45.000,0.00,0.09,-272.70,-272.77,0,964,0,20.3,4.6,-21.6,19.9,4.8,-21.4,5.73,1.94,-14.4,24.8
2015-03-22 00:30:00,0.0,1.94013,0.00031,405.915,0.031,0.1439,0.0020,140.001,45.000,34115.98668,1.94285,406.619,31.938,45.068,45.000,0.00,0.09,-272.71,-272.77,1,962,0,20.3,4.6,-21.6,19.9,4.8,-21.4,5.73,1.94,-14.5,24.8
2015-03-22 00:31:00,0.0,1.94026,0.00034,405.939,0.033,0.1437,0.0013,140.001,45.000,34114.92487,1.94299,406.643,31.938,45.068,45.000,0.00,0.09,-272.71,-272.77,1,962,0,20.3,4.6,-21.7,19.9,4.7,-21.5,5.73,1.97,-14.5,24.8
2015-03-22 00:32:00,0.0,1.94000,0.00028,405.897,0.031,0.1436,0.0017,139.999,45.000,34117.01362,1.94276,406.599,31.938,45.068,45.000,0.00,0.09,-272.71,-272.77,0,962,-0,20.3,4.6,-21.7,19.9,4.7,-21.5,5.73,2.02,-14.4,24.8
2015-03-22 00:33:00,0.0,1.94001,0.00042,405.921,0.032,0.1433,0.0017,140.001,45.000,34117.12782,1.94277,406.621,31.937,45.068,45.000,0.00,0.09,-272.71,-272.76,-0,963,0,20.3,4.5,-21.7,19.9,4.7,-21.5,5.73,2.04,-14.5,24.8
2015-03-22 00:34:00,0.0,1.93993,0.00028,405.931,0.031,0.1428,0.0017,140.003,45.000,34118.27159,1.94267,406.631,31.938,45.068,45.000,0.00,0.09,-272.72,-272.76,-0,964,0,20.3,4.6,-21.6,19.9,4.7,-21.5,5.73,2.03,-14.4,24.8
2015-03-22 00:35:00,0.0,1.94002,0.00041,405.938,0.029,0.1431,0.0016,140.001,45.000,34119.58591,1.94273,406.636,31.938,45.068,45.000,0.00,0.09,-272.71,-272.76,0,964,0,20.3,4.5,-21.6,19.9,4.7,-21.5,5.73,2.00,-14.4,24.8
2015-03-22 00:36:00,0.0,1.94031,0.00045,405.944,0.033,0.1443,0.0015,140.005,45.000,34118.53910,1.94307,406.652,31.938,45.068,45.000,0.00,0.09,-272.71,-272.76,1,963,-0,20.3,4.6,-21.6,19.9,4.7,-21.4,5.73,1.95,-14.4,24.8
2015-03-22 00:37:00,0.0,1.94011,0.00048,405.930,0.034,0.1459,0.0018,140.001,45.000,34118.90226,1.94293,406.646,31.939,45.068,45.000,0.00,0.09,-272.71,-272.77,1,963,0,20.3,4.6,-21.5,19.9,4.8,-21.4,5.73,1.94,-14.4,24.8
2015-03-22 00:38:00,0.0,1.93973,0.00032,405.875,0.041,0.1472,0.0018,140.002,45.000,34117.31247,1.94252,406.594,31.946,45.068,45.000,0.00,0.09,-272.71,-272.77,1,962,0,20.3,4.7,-21.4,19.9,4.8,-21.3,5.73,1.98,-14.5,24.8
2015-03-22 00:39:00,0.0,1.93991,0.00036,405.898,0.037,0.1460,0.0014,140.000,45.000,34117.81327,1.94272,406.616,31.950,45.068,45.000,0.00,0.09,-272.71,-272.76,0,962,-0,20.3,4.7,-21.4,19.9,4.8,-21.2,5.73,2.01,-14.4,24.7
2015-03-22 00:40:00,0.0,1.94005,0.00040,405.904,0.035,0.1446,0.0013,139.999,45.000,34119.18216,1.94280,406.610,31.939,45.068,45.000,0.00,0.09,-272.71,-272.77,-0,964,-0,20.3,4.6,-21.6,19.9,4.8,-21.4,5.73,2.04,-14.4,24.8
2015-03-22 00:41:00,0.0,1.94010,0.00054,405.902,0.037,0.1429,0.0017,139.998,45.000,34117.38589,1.94280,406.600,31.938,45.068,45.000,0.00,0.09,-272.71,-272.77,-0,964,-0,20.3,4.6,-21.6,20.0,4.7,-21.4,5.73,2.03,-14.4,24.8
2015-03-22 00:42:00,0.0,1.94020,0.00042,405.928,0.036,0.1445,0.0011,140.001,45.000,34117.68926,1.94297,406.636,31.938,45.068,45.000,0.00,0.09,-272.70,-272.76,0,964,-0,20.3,4.6,-21.5,20.0,4.8,-21.4,5.73,2.00,-14.4,24.7
2015-03-22 00:43:00,0.0,1.94014,0.00044,405.944,0.029,0.1458,0.0012,140.001,45.000,34120.27595,1.94294,406.657,31.938,45.068,45.000,0.00,0.09,-272.72,-272.77,1,963,-0,20.3,4.6,-21.4,19.9,4.8,-21.3,5.73,1.95,-14.4,24.7
2015-03-22 00:44:00,0.0,1.93978,0.00041,405.895,0.019,0.1468,0.0018,140.003,45.000,34124.02734,1.94262,406.614,31.938,45.068,45.000,0.00,0.09,-272.71,-272.78,1,962,-0,20.3,4.6,-21.4,20.0,4.8,-21.3,5.73,1.94,-14.4,24.8
2015-03-22 00:45:00,0.0,1.93988,0.00036,405.897,0.029,0.1466,0.0019,139.996,45.000,34121.34402,1.94268,406.614,31.940,45.068,45.000,0.00,0.09,-272.71,-272.77,1,963,-0,20.3,4.7,-21.4,20.0,4.8,-21.2,5.73,1.97,-14.4,24.8
2015-03-22 00:46:00,0.0,1.93974,0.00029,405.902,0.036,0.1470,0.0013,139.997,45.000,34123.21672,1.94256,406.623,31.938,45.068,45.000,0.00,0.09,-272.72,-272.76,0,963,0,20.3,4.7,-21.3,20.0,4.8,-21.2,5.73,2.01,-14.4,24.8
2015-03-22 00:47:00,0.0,1.93953,0.00034,405.886,0.034,0.1474,0.0017,140.000,45.000,34124.69175,1.94237,406.605,31.945,45.068,45.000,0.00,0.09,-272.72,-272.77,-0,964,0,20.3,4.7,-21.3,20.0,4.9,-21.1,5.73,2.05,-14.4,24.8
2015-03-22 00:48:00,0.0,1.93973,0.00036,405.894,0.032,0.1487,0.0018,139.996,45.000,34121.41374,1.94255,406.622,31.953,45.068,45.000,0.00,0.09,-272.72,-272.77,0,964,-0,20.3,4.7,-21.3,20.0,4.9,-21.1,5.73,2.03,-14.4,24.8
2015-03-22 00:49:00,0.0,1.93980,0.00031,405.905,0.041,0.1479,0.0017,140.000,45.000,34122.41141,1.94263,406.629,31.972,45.068,45.000,0.00,0.09,-272.71,-272.77,0,964,-0,20.3,4.7,-21.3,20.0,4.9,-21.1,5.73,1.99,-14.4,24.8
2015-03-22 00:50:00,0.0,1.93956,0.00050,405.880,0.036,0.1485,0.0021,139.995,45.000,34124.89451,1.94239,406.608,31.968,45.068,45.000,0.00,0.09,-272.72,-272.77,1,964,-0,20.3,4.7,-21.3,20.0,4.9,-21.1,5.73,1.94,-14.4,24.8
2015-03-22 00:51:00,0.0,1.93990,0.00032,405.895,0.030,0.1492,0.0020,139.998,45.000,34120.65322,1.94279,406.626,31.964,45.068,45.000,0.00,0.09,-272.72,-272.77,1,962,-0,20.3,4.7,-21.3,20.0,4.9,-21.1,5.73,1.93,-14.4,24.8
2015-03-22 00:52:00,0.0,1.93957,0.00036,405.896,0.035,0.1489,0.0008,139.999,45.000,34123.70164,1.94242,406.624,31.979,45.068,45.000,0.00,0.09,-272.70,-272.76,1,962,-0,20.3,4.7,-21.3,20.0,4.9,-21.1,5.73,1.98,-14.4,24.8
2015-03-22 00:53:00,0.0,1.93967,0.00029,405.928,0.037,0.1478,0.0017,140.001,45.000,34121.67801,1.94249,406.651,31.998,45.068,45.000,0.00,0.09,-272.70,-272.76,1,962,-0,20.4,4.7,-21.3,20.0,4.9,-21.1,5.73,2.03,-14.4,24.8
2015-03-22 00:54:00,0.0,1.93970,0.00033,405.929,0.028,0.1482,0.0017,140.001,45.000,34121.83828,1.94253,406.655,32.000,45.068,45.000,0.00,0.09,-272.72,-272.77,1,962,0,20.3,4.6,-21.4,20.0,4.8,-21.2,5.73,2.04,-14.4,24.8
2015-03-22 00:55:00,0.0,1.93939,0.00042,405.898,0.035,0.1472,0.0009,139.997,45.000,34123.00831,1.94225,406.620,32.038,45.068,45.000,0.00,0.09,-272.71,-272.77,0,962,-0,20.4,4.7,-21.3,20.0,4.8,-21.2,5.73,2.01,-14.4,24.9
2015-03-22 00:56:00,0.0,1.93967,0.00040,405.883,0.030,0.1467,0.0020,139.999,45.000,34125.10320,1.94244,406.602,32.056,45.068,45.000,0.00,0.09,-272.70,-272.77,-0,962,-0,20.4,4.7,-21.3,20.0,4.8,-21.2,5.73,1.97,-14.4,24.9
2015-03-22 00:57:00,0.0,1.93939,0.00031,405.884,0.027,0.1492,0.0013,139.997,45.000,34123.61725,1.94225,406.614,32.041,45.068,45.000,0.00,0.09,-272.71,-272.77,0,962,-0,20.4,4.7,-21.2,20.0,4.9,-21.1,5.73,1.95,-14.4,24.8
2015-03-22 00:58:00,0.0,1.93939,0.00032,405.904,0.035,0.1482,0.0017,140.003,45.000,34125.34373,1.94225,406.627,32.027,45.068,45.000,0.00,0.09,-272.71,-272.77,-0,963,-0,20.4,4.7,-21.2,20.0,4.9,-21.1,5.73,1.96,-14.4,24.8
2015-03-22 00:59:00,0.0,1.93947,0.00046,405.909,0.031,0.1493,0.0014,140.001,45.000,34123.95498,1.94231,406.641,32.026,45.068,45.000,0.00,0.09,-272.71,-272.77,-0,964,-0,20.4,4.7,-21.2,20.0,4.9,-21.1,5.73,2.01,-14.4,24.8
2015-03-22 01:00:00,0.0,1.93963,0.00043,405.907,0.026,0.1488,0.0011,139.997,45.000,34121.34651,1.94243,406.635,32.056,45.068,45.000,0.00,0.09,-272.72,-272.77,0,964,-0,20.4,4.7,-21.2,20.0,4.9,-21.1,5.73,2.04,-14.3,24.8
2015-03-22 01:01:00,0.0,1.93975,0.00039,405.928,0.029,0.1481,0.0015,139.999,45.000,34120.00834,1.94265,406.653,32.067,45.068,45.000,0.00,0.09,-272.72,-272.77,1,963,-0,20.4,4.7,-21.2,20.0,4.9,-21.1,5.73,2.04,-14.3,24.9
2015-03-22 01:02:00,0.0,1.93963,0.00036,405.929,0.027,0.1495,0.0014,139.999,45.000,34117.89449,1.94248,406.660,32.074,45.068,45.000,0.00,0.09,-272.71,-272.77,1,963,-0,20.4,4.7,-21.2,20.0,4.9,-21.1,5.73,1.97,-14.3,24.9
2015-03-22 01:03:00,0.0,1.93934,0.00042,405.922,0.031,0.1512,0.0023,140.001,45.000,34121.30530,1.94223,406.661,32.062,45.068,45.000,0.00,0.09,-272.71,-272.76,1,962,-0,20.4,4.7,-21.1,20.0,4.9,-21.0,5.73,1.93,-14.3,24.8
2015-03-22 01:04:00,0.0,1.93948,0.00035,405.944,0.041,0.1509,0.0017,139.998,45.000,34120.21393,1.94238,406.683,32.064,45.068,45.000,0.00,0.09,-272.71,-272.77,1,962,-0,20.4,4.8,-21.1,20.1,4.9,-20.9,5.73,1.95,-14.3,24.8
2015-03-22 01:05:00,0.0,1.93932,0.00026,405.901,0.036,0.1525,0.0015,139.999,45.000,34120.63948,1.94224,406.647,32.063,45.068,45.000,0.00,0.09,-272.70,-272.76,0,962,-0,20.4,4.8,-21.0,20.1,4.9,-20.9,5.73,1.99,-14.3,24.8
2015-03-22 01:06:00,0.0,1.93916,0.00052,405.892,0.041,0.1528,0.0016,140.003,45.000,34122.81874,1.94209,406.640,32.063,45.068,45.000,0.00,0.09,-272.70,-272.75,-0,962,-0,20.4,4.8,-21.0,20.1,5.0,-20.8,5.73,2.04,-14.3,24.9
2015-03-22 01:07:00,0.0,1.93912,0.00031,405.924,0.028,0.1519,0.0016,139.998,45.000,34122.23435,1.94201,406.669,32.064,45.068,45.000,0.00,0.09,-272.72,-272.77,0,962,-0,20.4,4.8,-21.0,20.1,4.9,-20.9,5.73,2.05,-14.3,24.9
2015-03-22 01:08:00,0.0,1.93939,0.00033,405.930,0.029,0.1499,0.0016,139.998,45.000,34119.92529,1.94226,406.661,32.066,45.068,45.000,0.00,0.09,-272.71,-272.77,-0,963,-0,20.4,4.7,-21.1,20.1,4.9,-20.9,5.73,2.00,-14.3,24.9
2015-03-22 01:09:00,0.0,1.93954,0.00040,405.934,0.037,0.1515,0.0021,140.001,45.000,34120.60385,1.94241,406.678,32.069,45.068,45.000,0.00,0.09,-272.71,-272.77,-0,963,-0,20.4,4.8,-21.1,20.1,4.9,-20.9,5.73,1.95,-14.3,24.9
2015-03-22 01:10:00,0.0,1.93959,0.00044,405.922,0.026,0.1525,0.0014,139.998,45.000,34119.89581,1.94254,406.668,32.094,45.068,45.000,0.00,0.09,-272.71,-272.77,-0,964,-0,20.4,4.8,-21.0,20.1,4.9,-20.9,5.73,1.94,-14.3,24.9
2015-03-22 01:11:00,0.0,1.93916,0.00030,405.916,0.035,0.1528,0.0018,139.998,45.000,34121.80724,1.94210,406.665,32.107,45.068,45.000,0.00,0.09,-272.72,-272.78,-0,964,-0,20.4,4.8,-21.0,20.1,5.0,-20.8,5.73,1.98,-14.3,24.9
2015-03-22 01:12:00,0.0,1.93897,0.00045,405.928,0.025,0.1527,0.0017,140.001,45.000,34124.53246,1.94189,406.673,32.104,45.068,45.000,0.00,0.09,-272.71,-272.77,-0,964,-0,20.4,4.8,-21.0,20.1,5.0,-20.8,5.73,2.03,-14.3,24.9
2015-03-22 01:13:00,0.0,1.93902,0.00035,405.921,0.043,0.1515,0.0018,140.002,45.000,34127.35183,1.94193,406.666,32.109,45.068,45.000,0.00,0.09,-272.70,-272.77,-0,964,-0,20.4,4.8,-21.1,20.1,4.9,-20.9,5.73,2.03,-14.3,24.9
2015-03-22 01:14:00,0.0,1.93876,0.00038,405.915,0.036,0.1511,0.0017,140.000,45.000,34126.44398,1.94166,406.651,32.123,45.068,45.000,0.00,0.09,-272.72,-272.77,0,964,-0,20.4,4.7,-21.1,20.1,4.9,-20.9,5.73,2.00,-14.3,24.8
2015-03-22 01:15:00,0.0,1.93913,0.00037,405.949,0.038,0.1503,0.0017,139.999,45.000,34125.34656,1.94200,406.687,32.125,45.068,45.000,0.00,0.09,-272.72,-272.77,0,963,-0,20.4,4.7,-21.1,20.1,4.9,-20.9,5.73,1.96,-14.3,24.7
2015-03-22 01:16:00,0.0,1.93916,0.00030,405.943,0.025,0.1490,0.0016,140.000,45.000,34126.88458,1.94198,406.672,32.122,45.068,45.000,0.00,0.09,-272.71,-272.76,0,963,-0,20.4,4.7,-21.2,20.1,4.9,-21.0,5.73,1.94,-14.3,24.7
2015-03-22 01:17:00,0.0,1.93885,0.00041,405.925,0.033,0.1507,0.0015,139.999,45.000,34127.88847,1.94175,406.663,32.103,45.068,45.000,0.00,0.09,-272.72,-272.77,-0,962,-0,20.4,4.7,-21.1,20.1,4.9,-21.0,5.73,1.95,-14.3,24.9
2015-03-22 01:18:00,0.0,1.93874,0.00028,405.931,0.039,0.1527,0.0017,139.999,45.000,34129.34893,1.94168,406.678,32.076,45.068,45.000,0.00,0.09,-272.72,-272.78,0,962,-0,20.5,4.7,-21.1,20.1,4.9,-20.9,5.73,2.01,-14.3,24.9
2015-03-22 01:19:00,0.0,1.93878,0.00040,405.937,0.024,0.1519,0.0013,139.998,45.000,34128.46210,1.94169,406.681,32.095,45.068,45.000,0.00,0.09,-272.71,-272.75,-0,963,-0,20.5,4.7,-21.1,20.1,4.9,-20.9,5.73,2.04,-14.3,24.9
2015-03-22 01:20:00,0.0,1.93895,0.00028,405.940,0.025,0.1502,0.0020,140.001,45.000,34126.18221,1.94182,406.676,32.125,45.068,45.000,0.00,0.09,-272.71,-272.77,-0,965,-0,20.5,4.7,-21.1,20.1,4.9,-21.0,5.73,2.04,-14.3,24.9
2015-03-22 01:21:00,0.0,1.93888,0.00038,405.919,0.037,0.1494,0.0015,139.997,45.000,34126.49638,1.94170,406.651,32.125,45.068,45.000,0.00,0.09,-272.72,-272.77,-0,964,-0,20.5,4.7,-21.1,20.1,4.9,-21.0,5.73,1.97,-14.3,24.9
2015-03-22 01:22:00,0.0,1.93881,0.00034,405.916,0.041,0.1500,0.0019,140.002,45.000,34126.74076,1.94173,406.649,32.123,45.068,45.000,0.00,0.09,-272.71,-272.77,0,964,-0,20.5,4.7,-21.2,20.1,4.9,-21.0,5.73,1.94,-14.3,25.0
2015-03-22 01:23:00,0.0,1.93910,0.00050,405.937,0.028,0.1471,0.0015,140.002,45.000,34124.81356,1.94189,406.658,32.100,45.068,45.000,0.00,0.09,-272.70,-272.76,-0,964,-0,20.5,4.7,-21.3,20.1,4.8,-21.1,5.73,1.93,-14.3,25.0
2015-03-22 01:24:00,0.0,1.93912,0.00040,405.932,0.045,0.1463,0.0019,140.006,45.000,34125.89364,1.94192,406.650,32.078,45.068,45.000,0.00,0.09,-272.72,-272.77,1,964,-0,20.5,4.6,-21.4,20.1,4.8,-21.2,5.73,1.97,-14.3,25.0
2015-03-22 01:25:00,0.0,1.93868,0.00033,405.906,0.030,0.1466,0.0022,139.998,45.000,34126.33036,1.94148,406.623,32.082,45.068,45.000,0.00,0.09,-272.72,-272.76,-0,963,-0,20.5,4.6,-21.5,20.1,4.8,-21.3,5.73,2.02,-14.3,24.9
2015-03-22 01:26:00,0.0,1.93883,0.00023,405.919,0.039,0.1455,0.0015,139.997,45.000,34125.58012,1.94163,406.632,32.073,45.068,45.000,0.00,0.09,-272.72,-272.77,0,963,-0,20.5,4.6,-21.5,20.1,4.7,-21.3,5.73,2.04,-14.3,24.9
2015-03-22 01:27:00,0.0,1.93898,0.00037,405.905,0.031,0.1436,0.0017,140.003,45.000,34127.96630,1.94172,406.608,32.065,45.068,45.000,0.00,0.09,-272.70,-272.77,-0,963,-0,20.5,4.5,-21.6,20.1,4.7,-21.4,5.73,2.01,-14.3,24.8
2015-03-22 01:28:00,0.0,1.93913,0.00042,405.942,0.035,0.1422,0.0018,140.001,45.000,34125.40834,1.94184,406.636,32.062,45.068,45.000,0.00,0.09,-272.72,-272.77,-0,964,-0,20.5,4.5,-21.7,20.1,4.7,-21.5,5.73,1.97,-14.3,24.9
2015-03-22 01:29:00,0.0,1.93915,0.00051,405.955,0.029,0.1439,0.0016,139.997,45.000,34123.56336,1.94190,406.661,32.027,45.068,45.000,0.00,0.09,-272.71,-272.76,-0,964,-0,20.5,4.5,-21.6,20.1,4.7,-21.5,5.73,1.95,-14.3,24.9
2015-03-22 01:30:00,0.0,1.93891,0.00024,405.947,0.023,0.1451,0.0016,139.998,45.000,34124.78935,1.94169,406.658,32.031,45.068,45.000,0.00,0.09,-272.71,-272.77,-0,965,-0,20.5,4.6,-21.5,20.1,4.7,-21.4,5.73,1.95,-14.3,25.0
2015-03-22 01:31:00,0.0,1.93889,0.00045,405.923,0.037,0.1449,0.0019,139.997,45.000,34123.31969,1.94168,406.633,32.049,45.068,45.000,0.00,0.09,-272.72,-272.76,0,965,-0,20.5,4.6,-21.5,20.1,4.7,-21.3,5.73,1.99,-14.3,24.9
2015-03-22 01:32:00,0.0,1.93896,0.00044,405.923,0.031,0.1453,0.0017,139.999,45.000,34122.97020,1.94176,406.634,32.042,45.068,45.000,0.00,0.09,-272.72,-272.77,0,964,-0,20.5,4.6,-21.5,20.1,4.7,-21.4,5.73,2.02,-14.3,24.9
2015-03-22 01:33:00,0.0,1.93901,0.00040,405.936,0.029,0.1463,0.0023,139.996,45.000,34123.61344,1.94178,406.652,32.028,45.068,45.000,0.00,0.09,-272.72,-272.77,0,964,-0,20.5,4.6,-21.5,20.1,4.7,-21.3,5.73,2.02,-14.3,24.8
2015-03-22 01:34:00,0.0,1.93868,0.00033,405.925,0.029,0.1452,0.0014,140.001,45.000,34126.35918,1.94148,406.636,32.052,45.068,45.000,0.00,0.09,-272.70,-272.77,0,963,-0,20.5,4.6,-21.5,20.1,4.7,-21.3,5.73,1.99,-14.3,24.9
2015-03-22 01:35:00,0.0,1.93898,0.00034,405.925,0.046,0.1457,0.0018,139.996,45.000,34124.00661,1.94177,406.638,32.043,45.068,45.000,0.00,0.09,-272.72,-272.77,0,963,-0,20.5,4.6,-21.5,20.1,4.7,-21.3,5.73,1.96,-14.3,24.9
2015-03-22 01:36:00,0.0,1.93859,0.00040,405.913,0.037,0.1462,0.0016,139.998,45.000,34124.44703,1.94139,406.629,32.027,45.068,45.000,0.00,0.09,-272.71,-272.77,-0,963,-0,20.5,4.6,-21.4,20.1,4.8,-21.2,5.73,1.94,-14.3,25.0
2015-03-22 01:37:00,0.0,1.93897,0.00036,405.949,0.032,0.1469,0.0021,139.998,45.000,34122.86854,1.94174,406.667,32.025,45.068,45.000,0.00,0.09,-272.72,-272.77,-1,963,-0,20.5,4.6,-21.4,20.1,4.8,-21.2,5.73,1.97,-14.3,24.9
2015-03-22 01:38:00,0.0,1.93879,0.00036,405.919,0.030,0.1469,0.0021,140.000,45.000,34124.50450,1.94162,406.638,32.033,45.068,45.000,0.00,0.09,-272.71,-272.77,-1,965,-0,20.5,4.6,-21.4,20.1,4.8,-21.2,5.73,2.00,-14.3,24.9
2015-03-22 01:39:00,0.0,1.93885,0.00024,405.927,0.026,0.1464,0.0018,140.000,45.000,34124.60378,1.94168,406.645,32.012,45.068,45.000,0.00,0.09,-272.71,-272.77,-0,965,-0,20.5,4.6,-21.4,20.1,4.8,-21.3,5.73,2.03,-14.3,25.0
2015-03-22 01:40:00,0.0,1.93884,0.00050,405.934,0.035,0.1470,0.0014,139.997,45.000,34123.02896,1.94167,406.652,32.000,45.068,45.000,0.00,0.09,-272.71,-272.76,0,965,-0,20.5,4.6,-21.4,20.1,4.7,-21.3,5.73,2.02,-14.3,24.9
2015-03-22 01:41:00,0.0,1.93881,0.00035,405.892,0.029,0.1475,0.0018,139.999,45.000,34127.12641,1.94162,406.616,31.999,45.068,45.000,0.00,0.09,-272.72,-272.77,0,964,-0,20.5,4.6,-21.3,20.1,4.8,-21.2,5.73,1.98,-14.3,24.9
2015-03-22 01:42:00,0.0,1.93836,0.00024,405.907,0.022,0.1492,0.0021,139.996,45.000,34128.81509,1.94121,406.636,31.990,45.068,45.000,0.00,0.09,-272.71,-272.77,-0,963,-0,20.5,4.7,-21.2,20.1,4.8,-21.1,5.73,1.95,-14.3,24.9
2015-03-22 01:43:00,0.0,1.93834,0.00040,405.902,0.027,0.1500,0.0016,140.003,45.000,34129.50150,1.94120,406.636,31.961,45.068,45.000,0.00,0.09,-272.71,-272.76,-0,963,-0,20.5,4.7,-21.2,20.2,4.9,-21.0,5.73,1.95,-14.3,24.9
2015-03-22 01:44:00,0.0,1.93847,0.00037,405.894,0.027,0.1471,0.0014,140.003,45.000,34129.35593,1.94132,406.616,31.944,45.068,45.000,0.00,0.09,-272.72,-272.77,-1,964,-0,20.5,4.6,-21.3,20.2,4.8,-21.1,5.73,1.97,-14.3,24.9
2015-03-22 01:45:00,0.0,1.93823,0.00037,405.896,0.037,0.1474,0.0010,140.000,45.000,34131.91339,1.94104,406.616,31.941,45.068,45.000,0.00,0.09,-272.72,-272.77,-1,965,-0,20.5,4.6,-21.4,20.1,4.8,-21.2,5.73,2.01,-14.3,25.0
2015-03-22 01:46:00,0.0,1.93820,0.00035,405.885,0.035,0.1472,0.0010,139.998,45.000,34130.67217,1.94100,406.607,31.929,45.069,45.000,0.00,0.09,-272.70,-272.76,-1,965,-0,20.5,4.6,-21.4,20.1,4.8,-21.2,5.73,2.04,-14.3,24.9